Location: Luxembourg
(49.6117°N, 6.1300°E)
Time: 11:13:47
(UTC+01:00)

N. Korean satellite - Pass Details

Date: 11 December 2021
Orbit: 446 x 492 km, 97.3° (Epoch: 15 January)

Event Time Altitude Azimuth Distance (km) Brightness Sun altitude
Rises 17:41:19 0° 196° (SSW) 2,501 10.8 -10.1°
Reaches altitude 10° 17:43:40 10° 211° (SSW) 1,620 10.1 -10.4°
Maximum altitude 17:46:29 23° 265° (W) 1,034 9.2 -10.9°
Drops below altitude 10° 17:49:18 10° 320° (NW) 1,611 9.4 -11.3°
Sets 17:51:33 0° 335° (NNW) 2,453 10.2 -11.6°
